This demonstration page uses our WeatherBlox Daily Observations layout. Learn more.

Hourly Observations for October 17, 2018

Temp ( °F °C ) Dew Point ( °F °C ) Humidity (%) Winds ( mph kmh ) Pressure ( in mb ) Visibility ( mi km ) Precip ( " mm )
12:15 am 00:15 Clear 41 5.2 35 1.9 79 79 NNW 5 7 30.42 1030 10 16.09344 0 0
12:35 am 00:35 Clear 42 5.8 36 2.2 78 78 NW 5 7 30.42 1030 10 16.09344 0 0
12:55 am 00:55 Clear 42 5.7 36 2.1 78 78 NNW 6 9 30.42 1030 10 16.09344 0 0
1:15 am 01:15 Clear 45 7.1 37 2.5 73 73 NW 7 11 30.39 1029 10 16.09344 0 0
1:35 am 01:35 Clear 42 5.8 36 2.1 77 77 NW 6 9 30.42 1030 10 16.09344 0 0
1:55 am 01:55 Clear 42 5.5 36 2.1 79 79 NW 5 7 30.42 1030 10 16.09344 0 0
2:15 am 02:15 Clear 41 5.1 36 2 81 81 WNW 5 7 30.45 1031 10 16.09344 0 0
2:35 am 02:35 Clear 40 4.7 36 2 83 83 WNW 7 11 30.45 1031 10 16.09344 0 0
2:55 am 02:55 Clear 40 4.5 36 2 84 84 NW 8 13 30.45 1031 10 16.09344 0 0
3:15 am 03:15 Clear 41 5 36 2.1 82 82 NW 8 13 30.45 1031 10 16.09344 0 0
3:35 am 03:35 Clear 41 5.1 36 2 81 81 NW 5 7 30.45 1031 10 16.09344 0 0
3:55 am 03:55 Clear 40 4.5 35 1.9 83 83 WNW 6 9 30.45 1031 10 16.09344 0 0
4:15 am 04:15 Clear 40 4.2 35 1.9 85 85 WNW 5 7 30.45 1031 10 16.09344 0 0
4:35 am 04:35 Clear 40 4.3 36 2 85 85 WNW 5 7 30.45 1031 10 16.09344 0 0
4:55 am 04:55 Clear 38 3.6 35 1.5 86 86 NW 5 7 30.45 1031 10 16.09344 0 0
5:15 am 05:15 Clear 37 2.8 34 1.3 90 90 NNW 3 6 30.48 1032 10 16.09344 0 0
5:35 am 05:35 Clear 37 2.6 34 1.2 91 91 NNW 3 6 30.5 1033 10 16.09344 0 0
5:55 am 05:55 Clear 37 2.6 34 1.2 91 91 NW 3 6 30.5 1033 10 16.09344 0 0
6:15 am 06:15 Clear 37 2.5 34 1.2 91 91 NNW 5 7 30.5 1033 10 16.09344 0 0
6:35 am 06:35 Clear 36 2.2 34 1 92 92 WNW 5 7 30.5 1033 10 16.09344 0 0
6:55 am 06:55 Clear 37 2.6 35 1.5 93 93 NNW 6 9 30.53 1034 10 16.09344 0 0
7:15 am 07:15 Clear 36 2.2 34 1.1 93 93 NW 3 6 30.53 1034 10 16.09344 0 0
7:35 am 07:35 Clear 36 2 34 1 93 93 WNW 3 6 30.53 1034 10 16.09344 0 0
7:55 am 07:55 Sunny 36 2 34 1.1 94 94 Calm 30.53 1034 10 16.09344 0 0
8:15 am 08:15 Sunny 35 1.6 33 0.8 94 94 Calm 30.53 1034 10 16.09344 0 0
8:35 am 08:35 Sunny 37 3 35 1.6 91 91 NW 3 6 30.56 1035 10 16.09344 0 0
8:55 am 08:55 Sunny 39 4 36 2.3 89 89 NW 5 7 30.53 1034 10 16.09344 0 0
9:15 am 09:15 Sunny 42 5.8 39 3.7 87 87 Calm 30.53 1034 10 16.09344 0 0
9:35 am 09:35 Sunny 46 8 41 4.9 81 81 NW 5 7 30.5 1033 10 16.09344 0 0
9:55 am 09:55 Sunny 49 9.6 41 5 73 73 Calm 30.5 1033 10 16.09344 0 0
10:15 am 10:15 Sunny 51 10.7 42 5.7 71 71 Calm 30.48 1032 10 16.09344 0 0
10:35 am 10:35 Sunny 55 12.7 42 5.5 62 62 Calm 30.48 1032 10 16.09344 0 0
10:55 am 10:55 Sunny 57 13.8 41 5.1 56 56 Calm 30.45 1031 10 16.09344 0 0
11:15 am 11:15 Sunny 58 14.5 38 3.2 47 47 Calm 30.45 1031 10 16.09344 0 0
11:35 am 11:35 Sunny 59 15.2 38 3.4 45 45 Calm 30.45 1031 10 16.09344 0 0
11:55 am 11:55 Sunny 61 16 38 3.3 43 43 Calm 30.45 1031 10 16.09344 0 0
12:15 pm 12:15 Sunny 61 16.3 37 2.9 41 41 SSW 5 7 30.45 1031 10 16.09344 0 0
12:35 pm 12:35 Sunny 61 16.2 36 2.3 39 39 Calm 30.45 1031 10 16.09344 0 0
12:55 pm 12:55 Sunny 63 17.1 38 3.1 39 39 SW 5 7 30.42 1030 10 16.09344 0 0
1:15 pm 13:15 Sunny 63 17 35 1.9 36 36 SE 3 6 30.42 1030 10 16.09344 0 0
1:35 pm 13:35 Sunny 63 17.2 36 2.3 37 37 S 3 6 30.42 1030 10 16.09344 0 0
1:55 pm 13:55 Sunny 64 17.7 37 2.7 37 37 SSW 6 9 30.39 1029 10 16.09344 0 0
2:15 pm 14:15 Sunny 64 18 37 2.7 36 36 Calm 30.39 1029 10 16.09344 0 0
2:35 pm 14:35 Sunny 65 18.2 37 3 36 36 Calm 30.39 1029 10 16.09344 0 0
2:55 pm 14:55 Sunny 65 18.3 36 2.1 34 34 Calm 30.39 1029 10 16.09344 0 0
3:15 pm 15:15 Sunny 65 18.6 36 2.4 34 34 Calm 30.36 1028 10 16.09344 0 0
3:35 pm 15:35 Sunny 66 18.8 38 3.1 35 35 SSE 3 6 30.36 1028 10 16.09344 0 0
3:55 pm 15:55 Sunny 65 18.6 37 2.8 35 35 SE 5 7 30.36 1028 10 16.09344 0 0
4:15 pm 16:15 Sunny 66 19.1 38 3.3 35 35 SW 3 6 30.36 1028 10 16.09344 0 0
4:35 pm 16:35 Sunny 66 19.1 38 3.2 35 35 SSE 6 9 30.36 1028 10 16.09344 0 0
4:55 pm 16:55 Sunny 66 18.9 37 2.9 35 35 SSE 6 9 30.36 1028 10 16.09344 0 0
5:15 pm 17:15 Sunny 66 18.8 37 2.6 34 34 SSW 6 9 30.36 1028 10 16.09344 0 0
5:35 pm 17:35 Sunny 65 18.6 37 2.5 34 34 S 3 6 30.36 1028 10 16.09344 0 0
5:55 pm 17:55 Sunny 65 18.1 38 3.2 37 37 SW 5 7 30.36 1028 10 16.09344 0 0
6:15 pm 18:15 Sunny 64 18 38 3.1 37 37 S 6 9 30.36 1028 10 16.09344 0 0
6:35 pm 18:35 Sunny 62 16.4 38 3.1 41 41 S 6 9 30.36 1028 10 16.09344 0 0
6:55 pm 18:55 Clear 59 14.8 37 3 45 45 S 7 11 30.39 1029 10 16.09344 0 0
7:15 pm 19:15 Clear 56 13.3 37 2.6 49 49 S 7 11 30.39 1029 10 16.09344 0 0
7:35 pm 19:35 Clear 55 12.9 36 2.1 48 48 S 7 11 30.45 1031 10 16.09344 0 0
7:55 pm 19:55 Clear 54 12 36 2 51 51 S 7 11 30.45 1031 10 16.09344 0 0
8:15 pm 20:15 Clear 52 11.3 36 2 53 53 S 7 11 30.45 1031 10 16.09344 0 0
8:35 pm 20:35 Clear 52 10.9 36 2.1 55 55 S 8 13 30.45 1031 10 16.09344 0 0
8:55 pm 20:55 Clear 53 11.5 37 2.7 55 55 S 7 11 30.45 1031 10 16.09344 0 0
9:15 pm 21:15 Clear 51 10.5 37 2.7 59 59 S 6 9 30.45 1031 10 16.09344 0 0
9:35 pm 21:35 Clear 50 9.9 37 2.8 62 62 S 6 9 30.48 1032 10 16.09344 0 0
9:55 pm 21:55 Clear 51 10.6 38 3.2 60 60 S 5 7 30.45 1031 10 16.09344 0 0
10:15 pm 22:15 Clear 49 9.5 38 3.1 65 65 S 6 9 30.48 1032 10 16.09344 0 0
10:35 pm 22:35 Clear 48 9.1 38 3.1 66 66 S 8 13 30.48 1032 10 16.09344 0 0
10:55 pm 22:55 Clear 49 9.4 38 3.4 66 66 S 7 11 30.48 1032 10 16.09344 0 0
11:15 pm 23:15 Clear 49 9.3 38 3.5 67 67 S 7 11 30.48 1032 10 16.09344 0 0
11:35 pm 23:35 Clear 48 9 38 3.5 69 69 S 6 9 30.48 1032 10 16.09344 0 0
11:55 pm 23:55 Clear 48 9 38 3.5 69 69 S 9 15 30.48 1032 10 16.09344 0 0

Powered by AerisWeather